Showing default

DROID.002, 63223

Orbit data source: Space-Track

DROID.002, 63223 is a payload satellite owned by Turion Space (US) in SSO that was launched on Sat, 15 Mar 2025 UTC via an FALCON 9 launch vehicle from the Air Force Western Test Range (AFWTR). Payload-class satellites include a variety of spacecraft equipped with specific instruments for various scientific and technological missions. These include communications satellites like Starlink; space stations such as the ISS; scientific satellites like the Hubble; Earth observation satellites from companies like Planet Labs, Umbra, and HawkEye 360; GPS; miniature CubeSats for education and research; and military/defense satellites.

Loading next visibility...
Identifier
63223, 2025-052P
Orbit
SSO
Country
Flag of USUS
Related business
Manufacturer
Turion Space
Mission
Operational Commercial Technology
Bus & Motor
DROID, Unknown motor
Mass
90 kg wet, 90 kg dry
Launch date (UTC)
2025-03-15 (2 years ago)
Launch vehicle
FALCON 9
Launch site
Air Force Western Test Range (AFWTR)
Object type
Payload
Rocket body
Debris
Shape & HBR
Box + 2 Pan, 1.0 m
Radar Cross Section
0.892 m², Large (>1 m²)

Expand to show TLE details & history
Last TLE update: 11 hours ago

TLE from 11 hours ago
0 DROID.002
1 63223U 25052P   26265.49283437  .00003718  00000-0  15828-3 0  9997
2 63223  97.3785 156.7913 0004971 133.2671 226.8981 15.23599329 84683
Epoch: 2026-09-22T11:49Z
TLE epoch observation values (Epoch: 2026-09-22T11:49:40.889Z)
Latitude
-0.00009°
Longitude
-21.98658°
Altitude
500.427 km
Speed
7.613 km/s
True Right ascension
10h 27m 09s
True Declination
0° 00' 00"
Sunlit
Object was in daylight at epoch
Visualization orbit readout
Latitude
Unknown
Longitude
Unknown
Altitude
Unknown
Speed
Unknown
Apparent Right ascension
Unknown
Apparent Declination
Unknown
Sunlit
N/A
Visualization observer readout
Local Sidereal Time
15:31:50
Azimuth
Unknown
Elevation
Unknown
Doppler factor
Unknown
Orbital elements
Apogee altitude
495.37 km
Perigee altitude
488.539 km
Semi-major axis
6,870.091 km
Eccentricity
0.0005
Inclination
97.3785°
RAAN
156.7913°
Arg. of periapsis
133.2671°
True anomaly
226.85653°
Mean anomaly
226.8981°
Eccentric anomaly
226.87731°
Mean motion
3.81153 °/min
Orbital period
94.45 mins
BSTAR
0.00015828
Loading maneuver chart data...
Computing Atmospheric mass density...
Loading historical data...
Loading historical data...
Loading historical data...
Loading historical data...
Loading historical data...
Loading historical data...
Loading historical data...

Documentation

Showing up to 5 results
|